When you browse on this site, cookies collect data to enhance your experience and personalize the content and advertising you see.
Visit our Privacy Policy to learn more. By continuing to use the site, you agree to this use of cookies and data.
  • en France
  • Liste des pays
  • À 7 jours
  • Température de l'eau
  • Carte satellitaire
  • Carte météo
  • Widgets météo
  • user-avatar
    Se connecter

    Météo par heure à Cimguda

    Ce jour, 13 Décembre, Jeudi

    Heure Température Précipitation Vent Pression Humidité
    00:00 -4°C° 0.4 mm 3 m/s 575 mmHg 76%
    01:00 -4°C° 0.1 mm 4 m/s 575 mmHg 76%
    02:00 -4°C° 0.1 mm 4 m/s 575 mmHg 76%
    03:00 -5°C° 0 mm 4 m/s 575 mmHg 77%
    04:00 -5°C° 0.1 mm 4 m/s 575 mmHg 77%
    05:00 -5°C° 0.1 mm 4 m/s 575 mmHg 78%
    06:00 -5°C° 0.1 mm 4 m/s 575 mmHg 78%
    07:00 -5°C° 0.1 mm 4 m/s 575 mmHg 78%
    08:00 -5°C° 0.1 mm 4 m/s 576 mmHg 77%
    09:00 -5°C° 0.1 mm 4 m/s 576 mmHg 76%
    10:00 -5°C° 0.1 mm 4 m/s 576 mmHg 74%
    11:00 -5°C° 0.1 mm 4 m/s 577 mmHg 71%
    12:00 -4°C° 0.1 mm 4 m/s 577 mmHg 69%
    13:00 -5°C° 0.1 mm 4 m/s 577 mmHg 69%
    14:00 -5°C° 0.1 mm 3 m/s 577 mmHg 69%
    15:00 -6°C° 0.1 mm 3 m/s 578 mmHg 69%
    16:00 -8°C° 0 mm 3 m/s 577 mmHg 69%
    17:00 -9°C° 0 mm 3 m/s 577 mmHg 69%
    18:00 -10°C° 0 mm 2 m/s 577 mmHg 69%
    19:00 -10°C° 0 mm 2 m/s 577 mmHg 65%
    20:00 -10°C° 0 mm 2 m/s 577 mmHg 60%
    21:00 -12°C° 0 mm 2 m/s 577 mmHg 55%
    22:00 -12°C° 0 mm 2 m/s 577 mmHg 56%
    23:00 -12°C° 0 mm 2 m/s 578 mmHg 57%

    Demain, 14 Décembre, Vendredi

    Heure Température Précipitation Vent Pression Humidité
    00:00 -12°C° 0 mm 2 m/s 578 mmHg 58%
    01:00 -12°C° 0 mm 2 m/s 578 mmHg 60%
    02:00 -12°C° 0 mm 2 m/s 578 mmHg 63%
    03:00 -12°C° 0 mm 2 m/s 579 mmHg 65%
    04:00 -13°C° 0 mm 2 m/s 579 mmHg 65%
    05:00 -13°C° 0 mm 2 m/s 579 mmHg 66%
    06:00 -13°C° 0 mm 2 m/s 579 mmHg 66%
    07:00 -12°C° 0 mm 2 m/s 580 mmHg 66%
    08:00 -10°C° 0 mm 2 m/s 580 mmHg 65%
    09:00 -9°C° 0 mm 2 m/s 581 mmHg 64%
    10:00 -8°C° 0 mm 2 m/s 581 mmHg 63%
    11:00 -7°C° 0 mm 2 m/s 581 mmHg 61%
    12:00 -7°C° 0 mm 3 m/s 582 mmHg 60%
    13:00 -7°C° 0 mm 2 m/s 581 mmHg 61%
    14:00 -7°C° 0 mm 2 m/s 581 mmHg 63%
    15:00 -8°C° 0 mm 2 m/s 581 mmHg 65%
    16:00 -8°C° 0.1 mm 2 m/s 581 mmHg 69%
    17:00 -9°C° 0.1 mm 2 m/s 581 mmHg 72%
    18:00 -9°C° 0.1 mm 1 m/s 581 mmHg 76%
    19:00 -9°C° 0.1 mm 1 m/s 580 mmHg 75%
    20:00 -9°C° 0.1 mm 1 m/s 580 mmHg 75%
    21:00 -10°C° 0.1 mm 1 m/s 580 mmHg 74%
    22:00 -10°C° 0 mm 1 m/s 580 mmHg 74%
    23:00 -10°C° 0 mm 1 m/s 580 mmHg 73%

    Après-demain, 15 Décembre, Samedi

    Heure Température Précipitation Vent Pression Humidité
    00:00 -13°C° 0 mm 2 m/s 580 mmHg 72%
    01:00 -13°C° 0 mm 2 m/s 580 mmHg 71%
    02:00 -13°C° 0 mm 2 m/s 580 mmHg 71%
    03:00 -13°C° 0 mm 2 m/s 580 mmHg 70%
    04:00 -13°C° 0 mm 2 m/s 580 mmHg 69%
    05:00 -13°C° 0 mm 2 m/s 580 mmHg 69%
    06:00 -13°C° 0 mm 2 m/s 580 mmHg 68%
    07:00 -10°C° 0 mm 1 m/s 581 mmHg 66%
    08:00 -9°C° 0 mm 1 m/s 582 mmHg 64%
    09:00 -9°C° 0 mm 1 m/s 582 mmHg 62%
    10:00 -7°C° 0 mm 1 m/s 583 mmHg 61%
    11:00 -6°C° 0 mm 1 m/s 583 mmHg 59%
    12:00 -4°C° 0 mm 1 m/s 583 mmHg 57%
    13:00 -6°C° 0 mm 1 m/s 583 mmHg 58%
    14:00 -6°C° 0 mm 1 m/s 583 mmHg 60%
    15:00 -6°C° 0 mm 1 m/s 583 mmHg 61%
    16:00 -7°C° 0 mm 1 m/s 583 mmHg 61%
    17:00 -8°C° 0 mm 1 m/s 582 mmHg 62%
    18:00 -12°C° 0 mm 2 m/s 582 mmHg 62%
    19:00 -12°C° 0 mm 2 m/s 582 mmHg 59%
    20:00 -12°C° 0 mm 2 m/s 582 mmHg 56%
    21:00 -10°C° 0 mm 2 m/s 582 mmHg 53%
    22:00 -10°C° 0 mm 2 m/s 582 mmHg 53%
    23:00 -10°C° 0 mm 2 m/s 582 mmHg 52%

    16 Décembre, Dimanche

    Heure Température Précipitation Vent Pression Humidité
    00:00 -10°C° 0 mm 2 m/s 582 mmHg 51%
    01:00 -10°C° 0 mm 2 m/s 582 mmHg 51%
    02:00 -10°C° 0 mm 2 m/s 582 mmHg 51%
    03:00 -10°C° 0 mm 2 m/s 582 mmHg 52%
    04:00 -9°C° 0 mm 1 m/s 582 mmHg 52%
    05:00 -9°C° 0 mm 1 m/s 582 mmHg 51%
    06:00 -9°C° 0 mm 1 m/s 582 mmHg 51%
    07:00 -8°C° 0 mm 1 m/s 583 mmHg 51%
    08:00 -7°C° 0 mm 1 m/s 584 mmHg 51%
    09:00 -6°C° 0 mm 1 m/s 585 mmHg 50%
    10:00 -4°C° 0 mm 1 m/s 585 mmHg 51%
    11:00 -3°C° 0 mm 1 m/s 585 mmHg 52%
    12:00 -2°C° 0 mm 1 m/s 585 mmHg 52%
    13:00 -2°C° 0 mm 1 m/s 585 mmHg 55%
    14:00 -2°C° 0 mm 1 m/s 585 mmHg 58%
    15:00 -3°C° 0 mm 1 m/s 584 mmHg 61%
    16:00 -4°C° 0 mm 1 m/s 584 mmHg 61%
    17:00 -7°C° 0 mm 2 m/s 583 mmHg 62%
    18:00 -9°C° 0 mm 2 m/s 583 mmHg 62%
    19:00 -9°C° 0 mm 2 m/s 583 mmHg 61%
    20:00 -8°C° 0 mm 2 m/s 583 mmHg 60%
    21:00 -8°C° 0 mm 2 m/s 583 mmHg 60%
    22:00 -9°C° 0 mm 2 m/s 582 mmHg 60%
    23:00 -9°C° 0 mm 2 m/s 582 mmHg 61%

    17 Décembre, Lundi

    Heure Température Précipitation Vent Pression Humidité
    00:00 -9°C° 0 mm 2 m/s 582 mmHg 62%
    01:00 -9°C° 0 mm 2 m/s 582 mmHg 62%
    02:00 -9°C° 0 mm 2 m/s 582 mmHg 62%
    03:00 -9°C° 0 mm 2 m/s 582 mmHg 62%
    04:00 -9°C° 0 mm 2 m/s 581 mmHg 62%
    05:00 -9°C° 0 mm 2 m/s 581 mmHg 63%
    06:00 -9°C° 0 mm 2 m/s 581 mmHg 63%
    07:00 -8°C° 0 mm 2 m/s 581 mmHg 63%
    08:00 -7°C° 0 mm 2 m/s 582 mmHg 63%
    09:00 -6°C° 0 mm 2 m/s 582 mmHg 63%
    10:00 -5°C° 0 mm 2 m/s 582 mmHg 62%
    11:00 -4°C° 0 mm 2 m/s 582 mmHg 62%
    12:00 -3°C° 0 mm 2 m/s 583 mmHg 61%
    13:00 -2°C° 0 mm 1 m/s 582 mmHg 63%
    14:00 -2°C° 0 mm 1 m/s 582 mmHg 64%
    15:00 -2°C° 0 mm 1 m/s 581 mmHg 65%
    16:00 -4°C° 0 mm 1 m/s 581 mmHg 65%
    17:00 -6°C° 0 mm 1 m/s 580 mmHg 65%
    18:00 -8°C° 0 mm 2 m/s 580 mmHg 65%
    19:00 -8°C° 0 mm 2 m/s 580 mmHg 65%
    20:00 -8°C° 0 mm 2 m/s 580 mmHg 65%
    21:00 -8°C° 0 mm 2 m/s 580 mmHg 65%
    22:00 -8°C° 0.1 mm 2 m/s 580 mmHg 67%
    23:00 -7°C° 0.1 mm 2 m/s 580 mmHg 70%

    18 Décembre, Mardi

    Heure Température Précipitation Vent Pression Humidité
    00:00 -6°C° 0.1 mm 1 m/s 580 mmHg 72%
    01:00 -6°C° 0.2 mm 1 m/s 580 mmHg 76%
    02:00 -6°C° 0.2 mm 1 m/s 580 mmHg 79%
    03:00 -4°C° 0.2 mm 1 m/s 580 mmHg 82%
    04:00 -4°C° 0.2 mm 1 m/s 580 mmHg 84%
    05:00 -4°C° 0.2 mm 1 m/s 580 mmHg 85%
    06:00 -4°C° 0.2 mm 1 m/s 580 mmHg 86%
    07:00 -4°C° 0.1 mm 1 m/s 580 mmHg 86%
    08:00 -4°C° 0.1 mm 1 m/s 581 mmHg 86%
    09:00 -3°C° 0.1 mm 1 m/s 581 mmHg 85%
    10:00 -3°C° 0.2 mm 1 m/s 581 mmHg 84%
    11:00 -3°C° 0.2 mm 1 m/s 581 mmHg 83%
    12:00 -2°C° 0.2 mm 1 m/s 581 mmHg 82%
    13:00 -2°C° 0.2 mm 1 m/s 581 mmHg 84%
    14:00 -2°C° 0.2 mm 1 m/s 581 mmHg 85%
    15:00 -3°C° 0.2 mm 1 m/s 581 mmHg 86%
    16:00 -3°C° 0.2 mm 1 m/s 581 mmHg 88%
    17:00 -5°C° 0.2 mm 0 m/s 581 mmHg 90%
    18:00 -5°C° 0.2 mm 0 m/s 581 mmHg 92%
    19:00 -5°C° 0.1 mm 0 m/s 581 mmHg 92%
    20:00 -6°C° 0.1 mm 0 m/s 581 mmHg 92%
    21:00 -6°C° 0.1 mm 0 m/s 581 mmHg 91%
    22:00 -6°C° 0.2 mm 0 m/s 581 mmHg 91%
    23:00 -6°C° 0.2 mm 1 m/s 581 mmHg 90%
    Voir plus